Weather History for KORL - September, 2013

Change the Weather History Date:

Sunday, September 1, 2013

  Actual Average (KMCO) Record (KMCO)
Temperature  
Mean Temperature 82 °F 82 °F  
Max Temperature 91 °F 91 °F 96 °F (1935)
Min Temperature 73 °F 74 °F 65 °F (1938)
Degree Days  
Heating Degree Days 0 0  
Month to date heating degree days 0  
Since 1 July heating degree days 0  
Cooling Degree Days 16 17  
Month to date cooling degree days 17  
Year to date cooling degree days 2410  
Growing Degree Days 32 (Base 50)    
Moisture  
Dew Point 72 °F    
Average Humidity 79    
Maximum Humidity 96    
Minimum Humidity 50    
Precipitation  
Precipitation 0.05 in 0.22 in 2.26 in (1989)
Month to date precipitation 0.22  
Year to date precipitation 36.83  
Sea Level Pressure  
Sea Level Pressure 29.97 in    
Wind  
Wind Speed 5 mph (SSW)    
Max Wind Speed 31 mph    
Max Gust Speed 43 mph    
Visibility 10 miles    
Events Rain , Thunderstorm    
T = Trace of Precipitation, MM = Missing Value Source: NWS Daily Summary

Daily Weather History Graph

Daily Weather History Graph

Search for Another Location

Airport or City:

Trip Planner

Search our weather history database for the weather conditions in past years. The results will help you decide how hot, cold, wet, or windy it might be!

Date:

Astronomy

Sep. 01, 2013 Rise Set
Actual Time 7:03 AM EDT 7:46 PM EDT
Civil Twilight 6:39 AM EDT 8:10 PM EDT
Nautical Twilight 6:11 AM EDT 8:38 PM EDT
Astronomical Twilight 5:42 AM EDT 9:07 PM EDT
Moon 3:35 AM EDT (9/1) 5:13 PM EDT (9/1)
Length of Visible Light 13h 30m
Length of Day
12h 42m
Waning Crescent, 14% of the Moon is Illuminated
Sep 1
Waning Crescent
Sep 5
New
Sep 12
First Quarter
Sep 19
Full
Sep 26
Last Quarter

Hourly Weather History & Observations

Time (EDT) Temp. Heat Index Dew Point Humidity Pressure Visibility Wind Dir Wind Speed Gust Speed Precip Events Conditions
12:53 AM 75.0 °F - 72.0 °F 90% 29.98 in 10.0 mi Calm Calm - N/A   Clear
1:53 AM 75.0 °F - 71.1 °F 87% 29.96 in 10.0 mi South 5.8 mph - N/A   Clear
2:53 AM 75.0 °F - 71.1 °F 87% 29.96 in 10.0 mi South 6.9 mph - N/A   Clear
3:53 AM 75.0 °F - 72.0 °F 90% 29.96 in 10.0 mi South 5.8 mph - N/A   Clear
4:53 AM 75.0 °F - 72.0 °F 90% 29.96 in 10.0 mi SSW 5.8 mph - N/A   Clear
5:53 AM 73.9 °F - 71.1 °F 91% 29.96 in 10.0 mi SSW 4.6 mph - N/A   Clear
6:53 AM 73.9 °F - 71.1 °F 91% 29.99 in 10.0 mi SSW 5.8 mph - N/A   Clear
7:53 AM 75.0 °F - 71.1 °F 87% 30.00 in 10.0 mi SW 3.5 mph - N/A   Clear
8:53 AM 78.1 °F - 72.0 °F 81% 30.01 in 10.0 mi SSW 4.6 mph - N/A   Clear
9:53 AM 81.0 °F 85.8 °F 73.0 °F 77% 30.01 in 10.0 mi SW 4.6 mph - N/A   Clear
10:53 AM 84.0 °F 90.2 °F 73.0 °F 69% 30.01 in 10.0 mi Variable 5.8 mph - N/A   Clear
11:53 AM 84.9 °F 90.1 °F 71.1 °F 63% 30.01 in 10.0 mi Variable 3.5 mph - N/A   Scattered Clouds
12:53 PM 89.1 °F 95.0 °F 71.1 °F 55% 30.00 in 10.0 mi Variable 4.6 mph - N/A   Partly Cloudy
1:53 PM 90.0 °F 96.4 °F 71.1 °F 54% 29.99 in 10.0 mi West 5.8 mph - N/A   Mostly Cloudy
2:53 PM 89.1 °F 93.7 °F 69.1 °F 52% 29.96 in 10.0 mi West 4.6 mph - N/A   Overcast
3:53 PM 90.0 °F 94.5 °F 69.1 °F 50% 29.93 in 10.0 mi Calm Calm - N/A   Mostly Cloudy
4:53 PM 90.0 °F 94.5 °F 69.1 °F 50% 29.92 in 10.0 mi Calm Calm - N/A   Mostly Cloudy
5:53 PM 89.1 °F 95.0 °F 71.1 °F 55% 29.92 in 10.0 mi SE 8.1 mph - N/A   Mostly Cloudy
5:59 PM 89.6 °F 96.2 °F 71.6 °F 55% 29.92 in 10.0 mi SSE 8.1 mph - N/A Thunderstorm Thunderstorm
6:28 PM 75.2 °F - 73.4 °F 94% 29.94 in 2.5 mi SSE 31.1 mph 42.6 mph 0.01 in Rain , Thunderstorm Light Thunderstorms and Rain
6:36 PM 73.4 °F - 71.6 °F 94% 29.94 in 4.0 mi SSE 24.2 mph 42.6 mph 0.02 in Rain , Thunderstorm Thunderstorms and Rain
6:53 PM 73.9 °F - 72.0 °F 93% 29.96 in 10.0 mi South 20.7 mph 27.6 mph 0.04 in Rain , Thunderstorm Light Thunderstorms and Rain
7:53 PM 75.0 °F - 73.9 °F 96% 29.98 in 10.0 mi South 4.6 mph - 0.01 in Thunderstorm Thunderstorm
8:25 PM 75.2 °F - 73.4 °F 94% 29.97 in 10.0 mi WSW 5.8 mph - N/A   Partly Cloudy
8:53 PM 75.9 °F - 73.9 °F 94% 29.98 in 10.0 mi WSW 3.5 mph - N/A   Scattered Clouds
9:53 PM 75.9 °F - 73.0 °F 91% 30.00 in 10.0 mi SSE 3.5 mph - N/A   Clear
10:53 PM 75.9 °F - 73.0 °F 91% 30.01 in 10.0 mi SSE 5.8 mph - N/A   Clear
11:53 PM 75.9 °F - 73.0 °F 91% 30.03 in 10.0 mi Calm Calm - N/A   Mostly Cloudy